EZY712 EGGD-EHAM

Flight info

Callsign EZY712
Flight time 0h 52m
Altitude 29000
Route YORQI L607 ALHAD P72 IPRIL M197 REDFA
Aircraft A320/M-SDE3FGHIRWY/LB1

Departure

Time 2026-05-03 23:00
Airport Bristol Airport (EGGD)

Arrival

Time 2026-05-03 23:52
Airport Amsterdam Airport Schiphol (EHAM)
Time Latitude Longitude Altitude Speed Heading
2026-05-03 22:25 51.38529 -2.71807 619 ft 0 kts 85°
2026-05-03 22:40 51.38529 -2.71808 619 ft 1 kts 85°
2026-05-03 22:40 51.38529 -2.71847 618 ft 4 kts 109°
2026-05-03 22:40 51.38543 -2.71879 621 ft 4 kts 157°
2026-05-03 22:40 51.38557 -2.71885 611 ft 1 kts 174°
2026-05-03 22:41 51.38558 -2.71885 611 ft 1 kts 174°
2026-05-03 22:55 51.38554 -2.71884 619 ft 5 kts 174°
2026-05-03 22:55 51.38463 -2.71893 616 ft 17 kts 209°
2026-05-03 22:56 51.38431 -2.72090 605 ft 21 kts 264°
2026-05-03 22:56 51.38421 -2.72321 610 ft 21 kts 263°
2026-05-03 22:56 51.38412 -2.72555 611 ft 22 kts 266°
2026-05-03 22:56 51.38401 -2.72827 607 ft 26 kts 266°
2026-05-03 22:57 51.38393 -2.73063 605 ft 11 kts 267°
2026-05-03 22:57 51.38392 -2.73087 605 ft 0 kts 267°
2026-05-03 22:57 51.38391 -2.73105 606 ft 5 kts 267°
2026-05-03 22:58 51.38387 -2.73195 609 ft 7 kts 265°
2026-05-03 22:58 51.38381 -2.73257 624 ft 9 kts 252°
2026-05-03 22:58 51.38303 -2.73343 618 ft 16 kts 171°
2026-05-03 22:58 51.38220 -2.73288 627 ft 16 kts 119°
2026-05-03 22:59 51.38217 -2.73242 627 ft 0 kts 89°
2026-05-03 22:59 51.38218 -2.73227 626 ft 15 kts 89°
2026-05-03 22:59 51.38244 -2.72524 630 ft 109 kts 87°
2026-05-03 23:00 51.38309 -2.70892 662 ft 175 kts 86°
2026-05-03 23:00 51.38396 -2.69040 1714 ft 162 kts 84°
2026-05-03 23:00 51.38492 -2.67174 2436 ft 179 kts 87°
2026-05-03 23:00 51.38549 -2.65060 2822 ft 201 kts 88°
2026-05-03 23:01 51.38604 -2.62686 3175 ft 226 kts 88°
2026-05-03 23:01 51.38670 -2.60038 3641 ft 250 kts 87°
2026-05-03 23:01 51.38815 -2.57164 4301 ft 265 kts 76°
2026-05-03 23:01 51.39741 -2.54610 5155 ft 271 kts 41°
2026-05-03 23:02 51.41277 -2.52822 5787 ft 275 kts 31°
2026-05-03 23:02 51.42936 -2.51292 5970 ft 275 kts 27°
2026-05-03 23:02 51.44606 -2.49888 6013 ft 274 kts 27°
2026-05-03 23:02 51.46303 -2.48402 6015 ft 274 kts 29°
2026-05-03 23:03 51.47937 -2.46878 6016 ft 274 kts 30°
2026-05-03 23:03 51.49567 -2.45292 6016 ft 274 kts 32°
2026-05-03 23:03 51.50964 -2.43237 6016 ft 274 kts 54°
2026-05-03 23:03 51.51751 -2.40458 6086 ft 279 kts 78°
2026-05-03 23:04 51.51794 -2.37327 6970 ft 281 kts 97°
2026-05-03 23:04 51.51577 -2.34206 7980 ft 282 kts 96°
2026-05-03 23:04 51.51369 -2.31060 8878 ft 285 kts 96°
2026-05-03 23:04 51.51158 -2.27861 9751 ft 289 kts 96°
2026-05-03 23:05 51.50942 -2.24601 10406 ft 302 kts 96°
2026-05-03 23:05 51.50709 -2.21114 10709 ft 326 kts 96°
2026-05-03 23:05 51.50455 -2.17374 11030 ft 346 kts 96°
2026-05-03 23:05 51.50277 -2.14794 11447 ft 352 kts 96°
2026-05-03 23:06 51.49913 -2.09577 12425 ft 358 kts 96°
2026-05-03 23:06 51.49627 -2.05570 13169 ft 362 kts 96°
2026-05-03 23:06 51.49338 -2.01523 13887 ft 366 kts 96°
2026-05-03 23:06 51.49048 -1.97441 14580 ft 370 kts 96°
2026-05-03 23:07 51.48759 -1.93363 15248 ft 373 kts 96°
2026-05-03 23:07 51.48461 -1.89189 15910 ft 377 kts 96°
2026-05-03 23:07 51.48161 -1.84986 16547 ft 381 kts 96°
2026-05-03 23:07 51.47854 -1.80740 17178 ft 385 kts 97°
2026-05-03 23:08 51.47540 -1.76450 17791 ft 389 kts 97°
2026-05-03 23:08 51.47224 -1.72124 18396 ft 392 kts 97°
2026-05-03 23:08 51.46888 -1.67752 19001 ft 396 kts 99°
2026-05-03 23:08 51.46329 -1.63413 19583 ft 399 kts 102°
2026-05-03 23:09 51.45733 -1.59044 20167 ft 403 kts 102°
2026-05-03 23:09 51.45135 -1.54688 20730 ft 406 kts 102°
2026-05-03 23:09 51.44526 -1.50253 21269 ft 409 kts 102°
2026-05-03 23:09 51.43912 -1.45783 21791 ft 412 kts 102°
2026-05-03 23:10 51.43289 -1.41261 22296 ft 415 kts 102°
2026-05-03 23:10 51.42660 -1.36721 22774 ft 418 kts 102°
2026-05-03 23:10 51.42205 -1.33442 22938 ft 420 kts 102°
2026-05-03 23:10 51.41399 -1.27632 23010 ft 420 kts 102°
2026-05-03 23:11 51.40782 -1.23051 23008 ft 419 kts 100°
2026-05-03 23:11 51.40516 -1.18410 23010 ft 419 kts 90°
2026-05-03 23:11 51.40764 -1.13765 23010 ft 419 kts 79°
2026-05-03 23:11 51.41507 -1.09262 23008 ft 419 kts 70°
2026-05-03 23:12 51.42689 -1.05001 23010 ft 419 kts 63°
2026-05-03 23:12 51.43959 -1.00863 23008 ft 419 kts 64°
2026-05-03 23:12 51.45242 -0.96672 23008 ft 419 kts 64°
2026-05-03 23:12 51.46520 -0.92475 23009 ft 419 kts 64°
2026-05-03 23:13 51.47796 -0.88276 23010 ft 419 kts 64°
2026-05-03 23:13 51.48658 -0.85433 23010 ft 418 kts 64°
2026-05-03 23:13 51.49917 -0.81287 23010 ft 418 kts 64°
2026-05-03 23:13 51.51191 -0.77079 23008 ft 418 kts 64°
2026-05-03 23:14 51.52464 -0.72866 23009 ft 418 kts 64°
2026-05-03 23:14 51.53737 -0.68641 23009 ft 418 kts 64°
2026-05-03 23:14 51.55003 -0.64432 23009 ft 419 kts 64°
2026-05-03 23:14 51.56275 -0.60204 23009 ft 419 kts 64°
2026-05-03 23:15 51.57526 -0.56039 23008 ft 419 kts 64°
2026-05-03 23:15 51.58793 -0.51811 23010 ft 419 kts 64°
2026-05-03 23:15 51.60065 -0.47568 23315 ft 422 kts 64°
2026-05-03 23:15 51.61342 -0.43292 23798 ft 424 kts 64°
2026-05-03 23:16 51.62621 -0.39000 24244 ft 427 kts 64°
2026-05-03 23:16 51.63908 -0.34672 24652 ft 430 kts 64°
2026-05-03 23:16 51.65197 -0.30322 25051 ft 432 kts 64°
2026-05-03 23:16 51.66498 -0.25935 25444 ft 435 kts 64°
2026-05-03 23:17 51.67675 -0.21418 25825 ft 438 kts 72°
2026-05-03 23:17 51.68522 -0.16699 26190 ft 440 kts 74°
2026-05-03 23:17 51.69323 -0.11970 26549 ft 442 kts 75°
2026-05-03 23:17 51.70095 -0.07150 26898 ft 445 kts 76°
2026-05-03 23:18 51.70845 -0.02286 27242 ft 447 kts 76°
2026-05-03 23:18 51.71583 0.02590 27574 ft 449 kts 76°
2026-05-03 23:18 51.72322 0.07492 27886 ft 451 kts 76°
2026-05-03 23:18 51.73071 0.12426 28193 ft 453 kts 76°
2026-05-03 23:19 51.73833 0.17391 28489 ft 455 kts 76°
2026-05-03 23:19 51.74603 0.22361 28771 ft 457 kts 76°
2026-05-03 23:19 51.75371 0.27302 29031 ft 459 kts 76°
2026-05-03 23:19 51.76149 0.32323 29297 ft 461 kts 76°
2026-05-03 23:20 51.76923 0.37362 29546 ft 463 kts 76°
2026-05-03 23:20 51.77695 0.42422 29784 ft 464 kts 76°
2026-05-03 23:20 51.78463 0.47502 30015 ft 466 kts 76°
2026-05-03 23:20 51.79228 0.52595 30275 ft 466 kts 76°
2026-05-03 23:21 51.79990 0.57682 30575 ft 465 kts 76°
2026-05-03 23:21 51.80749 0.62763 30869 ft 464 kts 76°
2026-05-03 23:21 51.81499 0.67767 31160 ft 464 kts 76°
2026-05-03 23:21 51.82273 0.72843 31450 ft 463 kts 76°
2026-05-03 23:22 51.83838 0.82945 32013 ft 462 kts 75°
2026-05-03 23:22 51.84688 0.87957 32299 ft 462 kts 74°
2026-05-03 23:22 51.85604 0.92940 32581 ft 461 kts 73°
2026-05-03 23:23 51.86549 0.97905 32862 ft 460 kts 72°
2026-05-03 23:23 51.87492 1.02850 33137 ft 460 kts 73°
2026-05-03 23:23 51.88411 1.07746 33406 ft 459 kts 73°
2026-05-03 23:23 51.89323 1.12702 33683 ft 459 kts 73°
2026-05-03 23:24 51.90219 1.17666 33955 ft 458 kts 73°
2026-05-03 23:24 51.91102 1.22620 34229 ft 458 kts 74°
2026-05-03 23:24 51.91979 1.27568 34501 ft 457 kts 74°
2026-05-03 23:24 51.92853 1.32504 34774 ft 456 kts 74°
2026-05-03 23:25 51.93729 1.37451 35041 ft 456 kts 74°
2026-05-03 23:25 51.94606 1.42392 35295 ft 455 kts 74°
2026-05-03 23:25 51.95481 1.47323 35532 ft 454 kts 74°
2026-05-03 23:25 51.96351 1.52246 35761 ft 454 kts 74°
2026-05-03 23:26 51.97221 1.57185 35996 ft 453 kts 74°
2026-05-03 23:26 51.98072 1.62053 36208 ft 453 kts 74°
2026-05-03 23:26 51.98930 1.66971 36413 ft 453 kts 74°
2026-05-03 23:26 51.99772 1.71908 36607 ft 453 kts 75°
2026-05-03 23:27 52.00569 1.76869 36792 ft 453 kts 76°
2026-05-03 23:27 52.01323 1.81776 36960 ft 453 kts 76°
2026-05-03 23:27 52.02822 1.91714 37009 ft 453 kts 76°
2026-05-03 23:28 52.04340 2.01680 37009 ft 453 kts 76°
2026-05-03 23:28 52.05866 2.11628 37009 ft 453 kts 76°
2026-05-03 23:29 52.07378 2.21514 37009 ft 453 kts 76°
2026-05-03 23:29 52.08884 2.31475 36870 ft 452 kts 76°
2026-05-03 23:30 52.09631 2.36486 35841 ft 459 kts 76°
2026-05-03 23:30 52.10387 2.41561 34768 ft 464 kts 76°
2026-05-03 23:30 52.11207 2.46666 33717 ft 467 kts 71°
2026-05-03 23:30 52.12465 2.51486 32684 ft 469 kts 61°
2026-05-03 23:31 52.14119 2.56102 31598 ft 470 kts 59°
2026-05-03 23:31 52.15788 2.60685 30513 ft 471 kts 59°
2026-05-03 23:31 52.17462 2.65287 29436 ft 472 kts 59°
2026-05-03 23:31 52.19133 2.69904 28352 ft 471 kts 59°
2026-05-03 23:32 52.20796 2.74512 27271 ft 471 kts 59°
2026-05-03 23:32 52.22449 2.79109 26196 ft 469 kts 59°
2026-05-03 23:32 52.24072 2.83639 25131 ft 468 kts 59°
2026-05-03 23:32 52.25697 2.88185 24030 ft 454 kts 59°
2026-05-03 23:33 52.27263 2.92572 22956 ft 439 kts 59°
2026-05-03 23:33 52.28780 2.96821 21876 ft 427 kts 59°
2026-05-03 23:33 52.30263 3.00975 20793 ft 418 kts 59°
2026-05-03 23:33 52.31695 3.04991 19728 ft 409 kts 59°
2026-05-03 23:34 52.33129 3.09027 18638 ft 403 kts 59°
2026-05-03 23:34 52.34524 3.12960 17556 ft 396 kts 60°
2026-05-03 23:34 52.35876 3.16784 16492 ft 391 kts 60°
2026-05-03 23:34 52.37230 3.20612 15413 ft 385 kts 60°
2026-05-03 23:35 52.38566 3.24387 14672 ft 378 kts 59°
2026-05-03 23:35 52.39883 3.28109 14426 ft 378 kts 60°
2026-05-03 23:35 52.41197 3.31839 14180 ft 379 kts 60°
2026-05-03 23:35 52.42507 3.35568 13925 ft 376 kts 60°
2026-05-03 23:36 52.43810 3.39279 13677 ft 374 kts 60°
2026-05-03 23:36 52.44872 3.43108 13422 ft 373 kts 71°
2026-05-03 23:36 52.45532 3.47217 13219 ft 371 kts 77°
2026-05-03 23:36 52.46115 3.51337 12870 ft 370 kts 77°
2026-05-03 23:37 52.46702 3.55439 12506 ft 368 kts 77°
2026-05-03 23:37 52.47289 3.59521 12145 ft 366 kts 77°
2026-05-03 23:37 52.47867 3.63540 11787 ft 364 kts 77°
2026-05-03 23:37 52.48447 3.67583 11428 ft 362 kts 77°
2026-05-03 23:38 52.49023 3.71606 11073 ft 360 kts 77°
2026-05-03 23:38 52.49585 3.75564 10822 ft 348 kts 77°
2026-05-03 23:38 52.50123 3.79356 10694 ft 333 kts 77°
2026-05-03 23:38 52.50634 3.82984 10566 ft 319 kts 77°
2026-05-03 23:39 52.51115 3.86421 10445 ft 306 kts 77°
2026-05-03 23:39 52.51585 3.89774 10258 ft 297 kts 77°
2026-05-03 23:39 52.52043 3.93049 10098 ft 292 kts 77°
2026-05-03 23:39 52.52290 3.96345 10032 ft 291 kts 90°
2026-05-03 23:40 52.52044 3.99638 9862 ft 290 kts 105°
2026-05-03 23:40 52.51468 4.02819 9639 ft 289 kts 107°
2026-05-03 23:40 52.50893 4.05992 9414 ft 289 kts 107°
2026-05-03 23:40 52.50328 4.09143 9189 ft 288 kts 106°
2026-05-03 23:41 52.49763 4.12296 8971 ft 287 kts 106°
2026-05-03 23:41 52.49202 4.15432 8750 ft 286 kts 106°
2026-05-03 23:41 52.48643 4.18555 8521 ft 285 kts 106°
2026-05-03 23:41 52.48084 4.21666 8299 ft 284 kts 107°
2026-05-03 23:42 52.47524 4.24774 8079 ft 283 kts 107°
2026-05-03 23:42 52.46970 4.27831 7861 ft 282 kts 107°
2026-05-03 23:42 52.46411 4.30914 7645 ft 281 kts 107°
2026-05-03 23:42 52.45856 4.33985 7418 ft 280 kts 107°
2026-05-03 23:43 52.45302 4.37046 7207 ft 279 kts 107°
2026-05-03 23:43 52.44747 4.40101 6988 ft 279 kts 107°
2026-05-03 23:43 52.44191 4.43142 6772 ft 278 kts 107°
2026-05-03 23:43 52.43641 4.46130 6560 ft 277 kts 107°
2026-05-03 23:44 52.43085 4.49146 6346 ft 276 kts 107°
2026-05-03 23:44 52.42530 4.52154 6130 ft 275 kts 107°
2026-05-03 23:44 52.41976 4.55154 5918 ft 274 kts 107°
2026-05-03 23:44 52.41426 4.58144 5704 ft 273 kts 107°
2026-05-03 23:45 52.40877 4.61136 5491 ft 273 kts 107°
2026-05-03 23:45 52.40334 4.64078 5282 ft 272 kts 107°
2026-05-03 23:45 52.39787 4.67042 5070 ft 271 kts 107°
2026-05-03 23:45 52.39240 4.69988 4860 ft 270 kts 107°
2026-05-03 23:46 52.38692 4.72930 4648 ft 269 kts 107°
2026-05-03 23:46 52.38148 4.75842 4438 ft 262 kts 107°
2026-05-03 23:46 52.37628 4.78639 4240 ft 252 kts 107°
2026-05-03 23:46 52.37127 4.81334 4047 ft 242 kts 107°
2026-05-03 23:47 52.36651 4.83895 3865 ft 233 kts 107°
2026-05-03 23:47 52.36186 4.86396 3680 ft 225 kts 107°
2026-05-03 23:47 52.35734 4.88816 3471 ft 219 kts 107°
2026-05-03 23:47 52.35291 4.91193 3294 ft 217 kts 107°
2026-05-03 23:48 52.34848 4.93551 3125 ft 216 kts 107°
2026-05-03 23:48 52.34405 4.95899 2952 ft 215 kts 107°
2026-05-03 23:48 52.33846 4.98184 2554 ft 222 kts 128°
2026-05-03 23:48 52.32581 4.99491 2172 ft 219 kts 173°
2026-05-03 23:49 52.31175 4.98988 2126 ft 208 kts 218°
2026-05-03 23:49 52.30414 4.97067 2000 ft 205 kts 263°
2026-05-03 23:49 52.30692 4.94829 1782 ft 205 kts 300°
2026-05-03 23:49 52.31383 4.92778 1541 ft 200 kts 297°
2026-05-03 23:50 52.31891 4.90770 1342 ft 182 kts 283°
2026-05-03 23:50 52.32011 4.89472 1197 ft 166 kts 275°
2026-05-03 23:50 52.32038 4.87135 905 ft 145 kts 269°
2026-05-03 23:50 52.32009 4.85539 722 ft 138 kts 268°
2026-05-03 23:51 52.31969 4.83994 545 ft 135 kts 268°
2026-05-03 23:51 52.31923 4.82467 370 ft 134 kts 268°
2026-05-03 23:51 52.31875 4.80952 204 ft 133 kts 267°
2026-05-03 23:51 52.31826 4.79435 28 ft 132 kts 267°
2026-05-03 23:52 52.31782 4.78094 16 ft 103 kts 266°
2026-05-03 23:52 52.31750 4.77173 15 ft 59 kts 266°
2026-05-03 23:52 52.31659 4.76799 15 ft 20 kts 219°
2026-05-03 23:52 52.31599 4.76667 15 ft 13 kts 231°
2026-05-03 23:53 52.31549 4.76557 17 ft 11 kts 237°
2026-05-03 23:53 52.31499 4.76483 15 ft 10 kts 213°
2026-05-03 23:53 52.31424 4.76418 11 ft 12 kts 210°
2026-05-03 23:53 52.31390 4.76306 10 ft 10 kts 227°
2026-05-03 23:54 52.31359 4.76281 8 ft 0 kts 204°